Location: Newark
(7.0858°N, 171.3717°E)
Time: 17:29:56
(UTC+00:00)

Transit 2A - Pass Details

Date: 03 December 2020
Orbit: 598 x 960 km, 66.7° (Epoch: 20 January)

Event Time Altitude Azimuth Distance (km) Brightness Sun altitude
Rises 04:37:43 0° 230° (SW) 3,590 10.9 21.5°
Reaches altitude 10° 04:40:51 10° 244° (WSW) 2,671 11.1 20.8°
Maximum altitude 04:45:30 22° 292° (WNW) 1,975 8.9 19.7°
Drops below altitude 10° 04:50:10 10° 340° (NNW) 2,671 8.8 18.7°
Sets 04:53:20 0° 356° (N) 3,590 9.3 18.0°
